**Search for your results by entering your last name OR bib number OR search by age group to compare your stats with others
Individual Search
 
Bib:
Last Name:
All Participants Search
 
Top Ten Women
PlaceNameTimePace
1.Shannon Knabel19:08.376:08/M
2.Andrea Gibson21:13.586:48/M
3.Melissa Durham21:44.906:58/M
4.June Vasquez21:56.137:02/M
5.Elizabeth Fuchs22:12.787:07/M
6.Kathleen MacKe22:34.537:14/M
7.Emme McAtee22:41.977:16/M
8.Anna Young22:58.577:22/M
9.Jaime Couch22:58.957:22/M
10.Morgan Engelmeyer23:01.807:23/M
Top Ten Men
PlaceNameTimePace
1.Alex Hagan16:05.505:09/M
2.Thomas Noel16:19.475:14/M
3.Andy Fenton17:06.245:29/M
4.Mike Deren18:15.355:51/M
5.John Biros18:33.195:57/M
6.Scott Kellie18:58.236:05/M
7.Ben Buckner19:07.756:08/M
8.Steven Gray19:18.036:11/M
9.Brian Sternberg19:34.586:16/M
10.Thomas Stice19:37.246:17/M
Contact us for results help

Gallery of Events

Contact Us

Address:
172 Trademark Drive
Buda, Texas 78610

Phone:
(512) 386 - 7966

Email:
info@cadencesports.com